TimeEST,TemperatureF,Dew PointF,Humidity,Sea Level PressureIn,VisibilityMPH,Wind Direction,Wind SpeedMPH,Gust SpeedMPH,PrecipitationIn,Events,Conditions,WindDirDegrees,DateUTC
12:13 AM,21.2,15.8,80,30.42,2.0,WNW,8.1,-,0.00,Snow,Light Snow,290,2013-12-12 05:13:00
12:35 AM,19.4,12.2,74,30.43,1.8,NW,16.1,-,0.00,Snow,Light Snow,310,2013-12-12 05:35:00
12:37 AM,19.4,12.2,74,30.43,2.0,NW,12.7,19.6,0.00,Snow,Light Snow,310,2013-12-12 05:37:00
12:40 AM,19.4,12.2,74,30.43,3.0,NW,13.8,-,0.00,Snow,Light Snow,320,2013-12-12 05:40:00
12:53 AM,19.0,10.0,68,30.47,8.0,NNW,15.0,20.7,0.00,,Overcast,330,2013-12-12 05:53:00
1:15 AM,17.6,6.8,63,30.44,10.0,NW,15.0,-,N/A,,Overcast,320,2013-12-12 06:15:00
1:53 AM,15.1,5.0,64,30.47,10.0,NW,9.2,-,N/A,,Clear,310,2013-12-12 06:53:00
2:53 AM,14.0,5.0,67,30.51,10.0,WNW,5.8,-,N/A,,Clear,300,2013-12-12 07:53:00
3:53 AM,14.0,5.0,67,30.50,10.0,NW,8.1,-,N/A,,Clear,320,2013-12-12 08:53:00
4:53 AM,12.9,5.0,71,30.50,10.0,NW,4.6,-,N/A,,Clear,320,2013-12-12 09:53:00
5:53 AM,12.0,5.0,73,30.51,10.0,West,5.8,-,N/A,,Clear,270,2013-12-12 10:53:00
6:53 AM,10.9,3.9,73,30.52,10.0,Calm,Calm,-,N/A,,Clear,0,2013-12-12 11:53:00
7:53 AM,10.0,5.0,80,30.54,10.0,SW,3.5,-,N/A,,Overcast,220,2013-12-12 12:53:00
8:02 AM,10.4,5.0,79,30.49,9.0,SSW,3.5,-,N/A,,Overcast,200,2013-12-12 13:02:00
8:53 AM,10.9,5.0,77,30.54,7.0,SSW,4.6,-,N/A,,Mostly Cloudy,200,2013-12-12 13:53:00
9:36 AM,12.2,6.8,79,30.49,10.0,SSW,5.8,-,N/A,,Scattered Clouds,200,2013-12-12 14:36:00
9:53 AM,14.0,6.1,71,30.53,10.0,South,5.8,-,N/A,,Clear,190,2013-12-12 14:53:00
10:53 AM,17.1,6.1,62,30.52,10.0,WSW,10.4,17.3,N/A,,Clear,240,2013-12-12 15:53:00
11:53 AM,19.0,5.0,54,30.49,10.0,West,9.2,-,N/A,,Clear,270,2013-12-12 16:53:00
12:53 PM,19.0,3.9,52,30.47,10.0,West,13.8,18.4,N/A,,Clear,260,2013-12-12 17:53:00
1:53 PM,19.0,1.0,46,30.46,10.0,WSW,11.5,-,N/A,,Clear,240,2013-12-12 18:53:00
2:53 PM,19.9,-2.0,38,30.44,10.0,WSW,9.2,-,N/A,,Clear,250,2013-12-12 19:53:00
3:53 PM,19.9,-2.9,37,30.43,10.0,WSW,6.9,-,N/A,,Overcast,250,2013-12-12 20:53:00
4:53 PM,19.9,-5.1,33,30.41,10.0,SW,6.9,-,N/A,,Clear,230,2013-12-12 21:53:00
5:53 PM,18.0,-2.0,41,30.39,10.0,South,3.5,-,N/A,,Clear,190,2013-12-12 22:53:00
6:53 PM,18.0,-2.0,41,30.38,10.0,SSW,3.5,-,N/A,,Clear,210,2013-12-12 23:53:00
7:53 PM,19.0,1.0,46,30.36,10.0,SSW,5.8,-,N/A,,Clear,210,2013-12-13 00:53:00
8:53 PM,19.9,1.0,44,30.36,10.0,SW,5.8,-,N/A,,Clear,220,2013-12-13 01:53:00
9:53 PM,19.9,1.9,46,30.35,10.0,SW,3.5,-,N/A,,Clear,230,2013-12-13 02:53:00
10:53 PM,19.0,3.0,50,30.34,10.0,SW,4.6,-,N/A,,Clear,220,2013-12-13 03:53:00
11:53 PM,18.0,3.9,54,30.33,10.0,SW,3.5,-,N/A,,Clear,220,2013-12-13 04:53:00